Weather History for Lima, OH

Change the Weather History Date:

Wednesday, December 25, 2013

  Actual Average (KFDY) Record (KFDY)
Temperature  
Mean Temperature 22 °F -  
Max Temperature 28 °F 31 °F 63 °F (1982)
Min Temperature 17 °F 17 °F -17 °F (2004)
Degree Days  
Heating Degree Days 42    
Moisture  
Dew Point 16 °F    
Average Humidity 72    
Maximum Humidity 81    
Minimum Humidity 58    
Precipitation  
Precipitation 0.00 in - - ()
Sea Level Pressure  
Sea Level Pressure 30.31 in    
Wind  
Wind Speed 10 mph (SSW)    
Max Wind Speed 16 mph    
Max Gust Speed 24 mph    
Visibility 10 miles    
Events      
Averages and records for this station are not official NWS values.
T = Trace of Precipitation, MM = Missing Value Source: NWS Daily Summary

Daily Weather History Graph

Daily Weather History Graph

Search for Another Location

Airport:

Trip Planner

Search our weather history database for the weather conditions in past years. The results will help you decide how hot, cold, wet, or windy it might be!

Date:

Astronomy

Dec. 25, 2013 Rise Set
Actual Time 7:58 AM EST 5:14 PM EST
Civil Twilight 7:27 AM EST 5:45 PM EST
Nautical Twilight 6:53 AM EST 6:19 PM EST
Astronomical Twilight 6:19 AM EST 6:53 PM EST
Moon 12:23 AM EST (12/25) 12:19 PM EST (12/25)
Length of Visible Light 10h 17m
Length of Day
9h 15m
Waning Gibbous, 49% of the Moon is Illuminated
Dec 25
Waning Gibbous
Jan 1
New
Jan 7
First Quarter
Jan 15
Full
Jan 24
Last Quarter

Hourly Weather History & Observations

Time (EST) Temp. Windchill Dew Point Humidity Pressure Visibility Wind Dir Wind Speed Gust Speed Precip Events Conditions
12:53 AM 17.1 °F 7.6 °F 10.0 °F 74% 30.51 in 10.0 mi South 6.9 mph - N/A   Clear
1:53 AM 17.1 °F 5.0 °F 10.0 °F 74% 30.49 in 10.0 mi South 10.4 mph - N/A   Scattered Clouds
2:53 AM 18.0 °F 7.7 °F 10.0 °F 71% 30.49 in 10.0 mi South 8.1 mph - N/A   Mostly Cloudy
3:53 AM 19.0 °F 10.0 °F 10.0 °F 68% 30.48 in 10.0 mi SSE 6.9 mph - N/A   Overcast
4:53 AM 18.0 °F 4.2 °F 10.9 °F 74% 30.46 in 10.0 mi SSE 13.8 mph - N/A   Overcast
5:53 AM 18.0 °F 4.8 °F 10.9 °F 74% 30.46 in 10.0 mi SSE 12.7 mph - N/A   Partly Cloudy
6:53 AM 19.0 °F 5.6 °F 12.0 °F 74% 30.43 in 10.0 mi SSE 13.8 mph - N/A   Overcast
7:53 AM 19.9 °F 5.7 °F 12.9 °F 74% 30.40 in 10.0 mi SSE 16.1 mph - N/A   Overcast
8:53 AM 21.0 °F 7.1 °F 12.9 °F 71% 30.39 in 10.0 mi South 16.1 mph - N/A   Overcast
9:53 AM 21.9 °F 8.7 °F 12.9 °F 68% 30.38 in 10.0 mi South 15.0 mph 24.2 mph N/A   Overcast
10:53 AM 23.0 °F 10.6 °F 12.9 °F 65% 30.37 in 10.0 mi South 13.8 mph - N/A   Overcast
11:53 AM 24.1 °F 11.0 °F 12.9 °F 62% 30.34 in 10.0 mi South 16.1 mph - N/A   Overcast
12:53 PM 25.0 °F 14.2 °F 12.9 °F 60% 30.30 in 10.0 mi South 11.5 mph - N/A   Overcast
1:53 PM 26.1 °F 18.4 °F 12.9 °F 58% 30.27 in 10.0 mi SSW 6.9 mph - N/A   Overcast
2:53 PM 27.0 °F 18.0 °F 14.0 °F 58% 30.25 in 10.0 mi SSW 9.2 mph - N/A   Overcast
3:53 PM 27.0 °F 16.7 °F 16.0 °F 63% 30.26 in 10.0 mi SW 11.5 mph - N/A   Overcast
4:53 PM 26.1 °F 15.6 °F 18.0 °F 71% 30.26 in 10.0 mi SW 11.5 mph - N/A   Overcast
5:53 PM 26.1 °F 16.8 °F 19.0 °F 75% 30.26 in 10.0 mi SW 9.2 mph - N/A   Overcast
6:53 PM 27.0 °F 16.7 °F 19.9 °F 75% 30.25 in 9.0 mi SW 11.5 mph - N/A   Overcast
7:24 PM 26.6 °F 18.2 °F 21.2 °F 80% 30.20 in 7.0 mi SSW 8.1 mph - N/A   Overcast
7:35 PM 26.6 °F 18.2 °F 21.2 °F 80% 30.20 in 9.0 mi SW 8.1 mph - N/A   Overcast
7:42 PM 26.6 °F 18.2 °F 21.2 °F 80% 30.20 in 10.0 mi SSW 8.1 mph - N/A   Overcast
7:53 PM 27.0 °F 18.0 °F 21.0 °F 78% 30.24 in 10.0 mi SW 9.2 mph - N/A   Overcast
8:53 PM 27.0 °F 18.0 °F 21.0 °F 78% 30.22 in 10.0 mi SW 9.2 mph - N/A   Overcast
9:53 PM 28.0 °F 18.6 °F 21.9 °F 78% 30.20 in 10.0 mi SW 10.4 mph - N/A   Overcast
10:53 PM 28.0 °F 19.3 °F 21.9 °F 78% 30.19 in 9.0 mi SW 9.2 mph - N/A   Overcast
11:42 PM 28.4 °F 20.4 °F 23.0 °F 80% 30.14 in 9.0 mi SW 8.1 mph - N/A   Overcast
11:53 PM 28.0 °F 18.6 °F 23.0 °F 81% 30.17 in 9.0 mi SW 10.4 mph - N/A   Overcast